User: anonymous   Login
Location: Nirvana
(45.0297°N, 77.2628°W)
Time: 07:05:15
(UTC-05:00)
Language:

H-2A R/B - Orbit

View from above orbital plane
View from above orbital plane
View from above satellite
View from above satellite

Ground track
Ground track

The orbit data is extracted from the following two-line orbital elements,

1 27601U 02056E   15026.86740125  .00000145  00000-0  68684-4 0  2917
2 27601 098.4646 109.2002 0071929 359.0508 135.7358 14.31520601632991
Epoch (UTC): 26 January 2015 20:49:03
Eccentricity: 0.0071929
inclination: 98.4646°
perigee height: 735 km
apogee height: 838 km
right ascension of ascending node: 109.2002°
argument of perigee: 359.0508°
revolutions per day: 14.31520601
mean anomaly at epoch: 135.7358°
orbit number at epoch: 63299

The dashed part of the orbit path shows where the satellite is in the earth's shadow,  

DLR